Portada
METAR-TAF:

METAR-TAF

Aeroports :

Esmeraldas, Equador

latitud: 00-58-43N, longitud: 079-37-36W, altitud: 10 m

Observació

L'informe es va fer fa 10 hores i 22 minuts, a les 23:00 UTC
Vent 10 kt del Oest, variant entre Oest/Sud-Oest i Nord-Oest
Temperatura 26°C
Humitat 84%
Pressió 1012 hPa
Visibilitat 10 km o més
Núvols disperses a una alçada de 2600 ft
Cel ennuvolat a una alçada de 10000 ft
Cel ennuvolat a una alçada de 30000 ft

METAR: SETN 232300Z 27010KT 250V320 9999 SCT026 BKN100 BKN300 26/23 Q1011 A2987

Hora: 04:22 (09:22 UTC)


TAF: manca

Observacions i pronòstics meteorològics de més de 4000 aeroports (METAR i TAF).

Les estacions disponibles són els punts grocs i vermells al mapa.

Posi el ratolí al punt desitjat per veure el nom de l'estació.

Feu clic per veure les observacions i els pronòstics meteorològics.

Per canviar el mapa: feu clic els botons verds amb una creu de color negre per apropar; al botó verd amb un guió per allunyar la imatge; o en les fletxes verdes per a mapes adjacents.


METAR-TAF: